Stations météo

Publicité
Dax, France (7603): Température de l'air & dewpoint: 11.06.2019 16:00:00 - 17.06.2019 16:00:00 (CEST)Dax, France (7603): Température de l'air 5cm: 11.06.2019 16:00:00 - 17.06.2019 16:00:00 (CEST)Dax, France (7603): Température de l'air -20cm & Température de l'air -100cm: 11.06.2019 16:00:00 - 17.06.2019 16:00:00 (CEST)Dax, France (7603): Vitesse du vent & gusts: 11.06.2019 16:00:00 - 17.06.2019 16:00:00 (CEST)Dax, France (7603): Direction du vent: 11.06.2019 16:00:00 - 17.06.2019 16:00:00 (CEST)Dax, France (7603): reduced air pressure: 11.06.2019 16:00:00 - 17.06.2019 16:00:00 (CEST)Dax, France (7603): visibility: 11.06.2019 16:00:00 - 17.06.2019 16:00:00 (CEST)Dax, France (7603): Ensoleillement: 11.06.2019 16:00:00 - 17.06.2019 16:00:00 (CEST)Dax, France (7603): Quantités de précipitations: 11.06.2019 16:00:00 - 17.06.2019 16:00:00 (CEST)
Date & Time tt [°C] td [°C] tt 5cm [°C] tt -20cm [°C] tt -100cm [°C] ff [km/h] ff [knt] fx [km/h] fx [knt] dd ppp [hPa] vv [km] sd [min] rr [mm]
17.06.2019 16:00:00 29,6 13,4 31,8 20,4 17,8 11 6 26 14 SE 1013,5 40 60 0,0
17.06.2019 15:00:00 28,6 13,7 30,6 20,1 17,8 14 7 29 16 E 1014,1 20 60 0,0
17.06.2019 14:00:00 27,5 13,8 30,1 19,9 17,8 15 8 24 13 ESE 1014,8 20 60 0,0
17.06.2019 13:00:00 25,7 16,0 27,6 19,7 17,8 8 5 19 10 SE 1015,5 20 60 0,0
17.06.2019 12:00:00 23,3 15,4 24,2 19,6 17,8 9 5 20 11 ESE 1016,3 20 60 0,0
17.06.2019 11:00:00 20,9 14,3 22,7 19,5 17,7 11 6 17 9 ESE 1016,5 15 60 0,0
17.06.2019 10:00:00 17,5 15,5 16,3 19,5 17,7 4 2 8 5 SSE 1017,2 7 25 0,0
17.06.2019 09:00:00 15,4 15,1 15,7 19,6 17,8 5 3 9 5 SSE 1017,6 2,0 0 0,0
17.06.2019 08:00:00 15,4 15,2 14,4 19,7 17,7 2 1 8 4 WSW 1017,6 0,2 0 0,0
17.06.2019 07:00:00 14,4 14,1 13,6 19,8 17,8 2 1 6 4 S 1017,4 0,1 0 0,2
17.06.2019 06:00:00 14,3 13,8 12,7 19,9 17,8 0 0 9 5 N 1017,3 0,1 0 0,0
17.06.2019 05:00:00 13,4 11,8 12,6 20,0 17,7 0 0 4 2 N 1017,3 11 0 0,0
17.06.2019 04:00:00 14,5 12,4 13,3 20,1 17,7 0 0 8 4 N 1017,6 7 0 0,0
17.06.2019 03:00:00 17,0 12,3 15,2 20,2 17,8 4 2 9 5 NE 1017,6 4,9 0 0,0
17.06.2019 02:00:00 17,9 12,6 17,0 20,3 17,7 6 3 13 7 NE 1017,8 10 0 0,0
17.06.2019 01:00:00 18,9 12,9 18,0 20,4 17,7 9 5 15 8 NE 1017,9 34 0 0,0
17.06.2019 00:00:00 20,2 12,9 18,3 20,5 17,7 9 5 15 8 NE 1018,0 31 0 0,0
16.06.2019 23:00:00 20,6 12,3 18,7 20,5 17,7 8 4 14 7 E 1017,8 36 0 0,0
16.06.2019 22:00:00 22,3 12,0 20,6 20,5 17,7 9 5 19 10 ENE 1017,4 41 23 0,0
16.06.2019 21:00:00 24,3 11,9 23,7 20,5 17,7 14 7 24 13 E 1017,3 28 60 0,0
16.06.2019 20:00:00 25,6 11,4 26,7 20,4 17,7 16 8 26 14 ENE 1017,3 27 58 0,0
16.06.2019 19:00:00 26,0 12,4 27,2 20,2 17,7 16 9 26 14 ENE 1017,7 34 60 0,0
16.06.2019 18:00:00 26,0 12,1 28,4 20,0 17,7 16 9 28 15 ENE 1017,8 21 60 0,0
16.06.2019 17:00:00 25,6 12,8 28,3 19,7 17,7 16 8 29 16 E 1018,1 16 60 0,0
16.06.2019 16:00:00 25,2 12,4 27,7 19,4 17,7 15 8 30 16 E 1018,7 21 60 0,0
16.06.2019 15:00:00 24,4 13,0 26,5 19,1 17,7 14 7 30 16 E 1019,4 21 60 0,0
16.06.2019 14:00:00 23,1 13,3 26,1 19,0 17,7 16 9 31 17 E 1020,1 26 60 0,0
16.06.2019 13:00:00 21,9 14,0 24,2 18,8 17,7 15 8 36 19 ENE 1020,8 17 60 0,0
16.06.2019 12:00:00 20,5 13,0 22,2 18,7 17,7 16 9 27 14 ENE 1021,6 20 60 0,0
16.06.2019 11:00:00 19,0 13,0 20,2 18,7 17,7 13 7 21 12 ESE 1022,0 20 60 0,0
16.06.2019 10:00:00 16,8 12,9 18,1 18,7 17,7 9 5 16 9 E 1022,5 18 60 0,0
16.06.2019 09:00:00 14,8 12,5 15,4 18,8 17,7 6 4 13 7 NNE 1022,5 11 54 0,0
16.06.2019 08:00:00 12,2 11,7 10,0 18,9 17,7 0 0 6 3 N 1022,6 4,9 48 0,0
16.06.2019 07:00:00 10,4 9,8 9,0 19,1 17,7 0 0 3 2 N 1022,4 14 11 0,0
16.06.2019 06:00:00 10,4 9,8 8,9 19,2 17,7 0 0 2 1 N 1022,5 10 0 0,0
16.06.2019 05:00:00 10,8 10,0 9,6 19,3 17,7 0 0 3 2 N 1022,3 11 0 0,0
16.06.2019 04:00:00 11,3 10,7 10,0 19,5 17,7 0 0 6 3 N 1022,6 10 0 0,0
16.06.2019 03:00:00 11,5 10,7 10,1 19,6 17,7 4 2 5 3 S 1022,6 11 0 0,0
16.06.2019 02:00:00 12,3 11,2 11,1 19,6 17,7 0 0 4 2 N 1023,1 15 0 0,0
16.06.2019 01:00:00 13,5 11,5 12,4 19,8 17,7 2 1 6 3 ENE 1023,4 19 0 0,0
16.06.2019 00:00:00 14,3 11,8 13,2 19,8 17,7 2 1 11 6 NNW 1023,3 23 0 0,0
15.06.2019 23:00:00 15,2 11,8 14,4 19,9 17,7 6 3 11 6 NW 1023,2 28 0 0,0
15.06.2019 22:00:00 17,0 10,8 16,1 19,9 17,7 6 3 12 6 WNW 1022,5 42 17 0,0
15.06.2019 21:00:00 19,7 10,4 19,9 19,8 17,7 6 4 16 8 NNW 1022,1 32 60 0,0
15.06.2019 20:00:00 20,2 10,3 23,1 19,7 17,7 9 5 21 11 NNW 1021,9 33 58 0,0
15.06.2019 19:00:00 20,4 10,5 21,8 19,6 17,7 9 5 22 12 NW 1021,7 32 49 0,0
15.06.2019 18:00:00 21,0 11,3 23,3 19,4 17,7 13 7 22 12 W 1021,4 28 60 0,0
15.06.2019 17:00:00 21,3 10,1 23,1 19,2 17,7 11 6 28 15 WNW 1021,3 27 55 0,0
15.06.2019 16:00:00 21,2 11,5 21,1 19,1 17,7 10 6 22 12 W 1021,0 26 27 0,0
15.06.2019 15:00:00 20,5 11,4 20,7 18,9 17,6 9 5 19 10 WSW 1021,2 16 37 0,0
15.06.2019 14:00:00 19,4 12,9 19,3 18,8 17,6 4 2 14 8 W 1021,4 25 9 0,0
15.06.2019 13:00:00 18,1 12,5 19,3 18,8 17,7 7 4 13 7 WSW 1021,2 25 11 0,0
15.06.2019 12:00:00 17,2 12,3 16,4 18,8 17,7 8 4 16 9 SSW 1021,1 26 7 0,0
15.06.2019 11:00:00 16,4 12,4 16,4 18,7 17,6 7 4 13 7 SW 1020,8 32 9 0,0
15.06.2019 10:00:00 15,5 13,7 15,2 18,8 17,6 6 3 9 5 SSW 1020,4 21 4 0,0
15.06.2019 09:00:00 14,3 13,7 13,7 18,8 17,6 6 3 9 5 SSE 1019,7 12 0 0,0
15.06.2019 08:00:00 14,1 13,5 13,5 18,9 17,6 4 2 7 4 S 1019,2 3,1 0 0,4
15.06.2019 07:00:00 13,8 13,0 13,3 19,0 17,6 3 2 7 4 S 1018,9 13 0 0,2
15.06.2019 06:00:00 13,8 13,0 13,2 19,0 17,6 2 1 6 3 S 1018,3 14 0 1,6
15.06.2019 05:00:00 13,8 12,7 13,3 19,1 17,6 4 2 8 5 WSW 1018,2 4,7 0 1,0
15.06.2019 04:00:00 14,2 13,4 13,7 19,1 17,6 4 2 9 5 WSW 1018,0 8 0 0,0
15.06.2019 03:00:00 14,3 13,3 13,7 19,2 17,6 5 3 10 5 W 1017,7 14 0 0,0
15.06.2019 02:00:00 14,4 13,3 13,7 19,3 17,6 4 2 12 6 W 1017,4 10 0 0,2
15.06.2019 01:00:00 14,6 13,6 13,9 19,3 17,6 7 4 16 9 WSW 1017,2 5 0 1,4
15.06.2019 00:00:00 15,0 13,7 14,2 19,4 17,6 6 3 16 8 WSW 1016,5 9 0 1,0
14.06.2019 23:00:00 15,5 13,3 14,4 19,5 17,6 5 3 9 5 WSW 1016,3 10 0 0,2
14.06.2019 22:00:00 15,8 12,7 15,6 19,5 17,6 5 3 11 6 W 1015,1 22 0 0,0
14.06.2019 21:00:00 16,4 12,6 16,2 19,5 17,6 5 3 18 10 NW 1014,7 27 0 0,0
14.06.2019 20:00:00 16,7 13,4 15,7 19,5 17,6 10 6 18 10 WNW 1014,2 6 0 0,0
14.06.2019 19:00:00 17,8 13,5 18,0 19,5 17,5 8 5 16 9 NW 1013,0 22 0 0,0
14.06.2019 18:00:00 18,2 13,7 18,7 19,4 17,5 8 5 18 10 WNW 1012,7 27 0 0,0
14.06.2019 17:00:00 18,9 13,3 20,1 19,3 17,5 7 4 13 7 WNW 1012,5 25 0 0,0
14.06.2019 16:00:00 19,3 13,0 19,9 19,3 17,6 4 2 12 6 N 1012,5 17 0 0,0
14.06.2019 15:00:00 17,8 13,3 18,6 19,2 17,5 6 3 14 7 N 1013,1 12 0 0,0
14.06.2019 14:00:00 16,8 13,7 16,2 19,2 17,6 6 4 17 9 NNW 1013,1 12 0 0,0
14.06.2019 13:00:00 17,4 12,3 17,9 19,1 17,6 5 3 14 8 NW 1013,2 12 0 0,0
14.06.2019 12:00:00 18,2 12,4 19,1 19,1 17,5 2 1 12 6 WSW 1013,3 18 0 0,0
14.06.2019 11:00:00 17,5 10,8 18,8 19,1 17,5 3 1 8 5 SSE 1013,3 12 11 0,0
14.06.2019 10:00:00 16,3 10,6 18,1 19,1 17,5 2 1 10 6 WNW 1013,6 22 24 0,0
14.06.2019 09:00:00 15,9 11,5 16,5 19,2 17,5 4 2 10 5 NW 1013,7 20 60 0,0
14.06.2019 08:00:00 14,5 12,0 14,3 19,2 17,5 3 1 8 4 WNW 1013,5 20 20 0,0
14.06.2019 07:00:00 14,3 11,8 14,2 19,3 17,6 4 2 9 5 WSW 1013,9 10 0 0,0
14.06.2019 06:00:00 14,3 12,3 13,8 19,4 17,5 2 1 6 3 WSW 1014,0 16 0 0,0
14.06.2019 05:00:00 14,4 12,3 14,1 19,5 17,5 3 1 5 3 WSW 1013,6 15 0 0,0
14.06.2019 04:00:00 14,5 12,4 14,4 19,5 17,5 4 2 9 5 WSW 1014,2 14 0 0,0
14.06.2019 03:00:00 14,6 12,3 14,5 19,6 17,5 5 3 10 5 W 1014,2 16 0 0,0
14.06.2019 02:00:00 14,7 12,2 14,6 19,7 17,5 4 2 10 6 W 1014,3 14 0 0,0
14.06.2019 01:00:00 14,8 12,3 14,7 19,8 17,6 7 4 19 10 WNW 1014,5 13 0 0,0
14.06.2019 00:00:00 15,1 12,6 14,9 19,8 17,5 8 4 22 12 W 1014,3 13 0 0,0
13.06.2019 23:00:00 15,2 12,9 15,1 19,9 17,5 13 7 25 14 W 1013,5 12 0 0,0
13.06.2019 22:00:00 15,4 13,6 14,7 19,9 17,5 12 6 26 14 W 1012,3 15 0 0,2
13.06.2019 21:00:00 16,1 13,4 16,0 19,9 17,6 15 8 29 16 W 1011,3 17 0 0,0
13.06.2019 20:00:00 17,6 12,9 15,9 19,8 17,5 15 8 29 15 W 1010,4 12 0 0,0
13.06.2019 19:00:00 20,4 13,4 20,5 19,6 17,5 16 8 28 15 W 1009,5 20 9 0,0
13.06.2019 18:00:00 24,4 13,3 27,1 19,3 17,6 8 5 18 10 ESE 1009,3 26 50 0,0
13.06.2019 17:00:00 23,6 12,9 26,8 18,9 17,5 8 4 22 12 ESE 1009,6 12 60 0,0
13.06.2019 16:00:00 23,1 12,7 26,5 18,6 17,6 8 5 19 10 E 1010,1 9 60 0,0
13.06.2019 15:00:00 22,4 12,6 26,7 18,3 17,5 3 2 18 10 S 1010,8 12 60 0,0
13.06.2019 14:00:00 21,1 11,7 24,4 18,0 17,5 7 4 16 9 NNE 1011,3 13 60 0,0
13.06.2019 13:00:00 20,1 11,6 22,6 17,8 17,6 5 3 17 9 E 1011,7 12 60 0,0
13.06.2019 12:00:00 18,6 11,7 22,1 17,7 17,6 9 5 17 9 E 1012,2 12 60 0,0
13.06.2019 11:00:00 17,4 11,2 18,9 17,7 17,6 5 3 13 7 E 1012,6 12 55 0,0
13.06.2019 10:00:00 15,7 11,7 16,0 17,7 17,6 3 2 7 4 S 1012,9 10 41 0,0
13.06.2019 09:00:00 13,1 11,8 13,9 17,8 17,6 2 1 6 3 S 1013,0 12 28 0,0
13.06.2019 08:00:00 11,8 11,3 9,6 17,9 17,6 2 1 4 2 ESE 1012,8 3,0 60 0,0
13.06.2019 07:00:00 10,5 10,2 9,0 18,0 17,6 0 0 3 2 N 1013,1 3,0 13 0,0
13.06.2019 06:00:00 10,6 10,1 8,6 18,1 17,6 3 2 6 3 E 1012,9 3,4 0 0,0
13.06.2019 05:00:00 11,1 10,3 9,3 18,1 17,6 0 0 3 1 N 1013,0 11 0 0,0
13.06.2019 04:00:00 11,6 10,5 10,3 18,2 17,6 0 0 3 2 N 1013,3 11 0 0,0
13.06.2019 03:00:00 12,7 10,9 11,5 18,3 17,6 0 0 3 2 N 1013,7 13 0 0,0
13.06.2019 02:00:00 13,3 11,5 12,8 18,3 17,6 0 0 6 3 N 1014,4 13 0 0,0
13.06.2019 01:00:00 13,6 11,3 13,0 18,4 17,6 2 1 8 5 S 1014,7 13 0 0,0
13.06.2019 00:00:00 13,4 11,5 12,5 18,4 17,6 4 2 7 4 SSW 1015,1 14 0 0,0
12.06.2019 23:00:00 13,3 11,2 12,6 18,4 17,6 5 3 8 5 SSE 1015,4 14 0 0,0
12.06.2019 22:00:00 14,5 10,7 13,9 18,4 17,6 5 3 11 6 WSW 1015,1 16 17 0,0
12.06.2019 21:00:00 15,7 10,2 15,7 18,4 17,6 8 4 19 10 WNW 1015,1 17 45 0,0
12.06.2019 20:00:00 17,2 10,1 18,6 18,3 17,7 11 6 28 15 W 1014,9 21 56 0,0
12.06.2019 19:00:00 17,9 10,3 19,2 18,1 17,6 10 6 29 16 WNW 1014,5 20 60 0,0
12.06.2019 18:00:00 18,1 9,7 20,7 18,0 17,6 18 10 38 20 WNW 1014,3 19 60 0,0
12.06.2019 17:00:00 18,1 9,4 20,8 17,8 17,6 19 11 35 19 WNW 1014,7 20 60 0,0
12.06.2019 16:00:00 17,9 9,3 18,7 17,7 17,7 20 11 40 22 W 1015,0 15 55 0,0
12.06.2019 15:00:00 17,4 10,3 17,7 17,7 17,7 23 13 49 27 W 1015,1 16 46 0,0
12.06.2019 14:00:00 16,7 9,1 17,1 17,7 17,6 28 15 47 26 WSW 1015,2 15 37 0,0
12.06.2019 13:00:00 15,5 9,6 11,9 17,7 17,7 19 11 36 19 WSW 1015,0 15 0 0,0
12.06.2019 12:00:00 12,8 10,0 10,7 17,7 17,6 9 5 29 16 WSW 1015,1 10 0 0,4
12.06.2019 11:00:00 12,7 9,1 11,4 17,8 17,7 20 11 42 23 SW 1014,4 7 0 0,2
12.06.2019 10:00:00 12,6 10,7 10,6 17,9 17,7 20 11 39 21 SW 1014,3 12 0 0,0
12.06.2019 09:00:00 11,4 9,3 10,3 17,9 17,6 19 10 29 16 SSW 1014,1 8 0 0,4
12.06.2019 08:00:00 11,2 9,1 10,0 18,0 17,7 17 9 37 20 SSW 1013,3 11 0 1,2
12.06.2019 07:00:00 11,5 10,2 10,7 18,1 17,6 17 9 29 16 SSW 1013,1 20 0 1,0
12.06.2019 06:00:00 11,5 10,6 10,8 18,2 17,7 17 9 29 16 SSW 1013,0 - 0 1,6
12.06.2019 05:00:00 11,6 10,7 11,0 18,3 17,7 12 7 24 13 SW 1013,1 - 0 1,0
12.06.2019 04:00:00 11,6 10,8 10,8 18,4 17,7 12 6 23 13 SW 1013,3 - 0 0,4
12.06.2019 03:00:00 11,5 10,4 10,9 18,5 17,7 15 8 24 13 SSW 1013,7 - 0 0,0
12.06.2019 02:00:00 11,6 10,7 11,1 18,6 17,7 13 7 19 10 SSW 1014,2 - 0 0,0
12.06.2019 01:00:00 12,0 10,7 11,3 18,7 17,7 9 5 17 9 S 1014,7 - 0 0,4
12.06.2019 00:00:00 12,0 9,9 11,3 18,7 17,7 11 6 23 12 SW 1014,7 - 0 0,0
11.06.2019 23:00:00 12,7 9,7 11,4 18,8 17,7 16 9 29 15 WSW 1015,4 - 0 0,0
11.06.2019 22:00:00 12,9 9,7 12,3 18,8 17,7 10 5 19 11 WSW 1015,2 - 0 0,0
11.06.2019 21:00:00 13,6 10,2 12,6 18,8 17,7 6 4 31 17 W 1015,2 - 13 0,0
11.06.2019 20:00:00 15,7 10,0 13,8 18,8 17,7 17 9 36 19 W 1015,1 - 49 0,0
11.06.2019 19:00:00 14,1 12,0 11,8 18,7 17,7 10 5 37 20 WSW 1015,2 16 18 1,0
11.06.2019 18:00:00 15,6 10,4 13,0 18,7 17,7 16 9 39 21 W 1015,2 19 25 0,4
11.06.2019 17:00:00 15,8 9,0 13,3 18,6 17,7 21 11 48 26 WNW 1015,2 18 19 0,2
11.06.2019 16:00:00 16,3 9,9 15,8 18,5 17,7 19 11 44 24 WNW 1014,9 15 26 0,0

tt = Température de l'air
td = dewpoint
tt 5cm = Température de l'air 5cm
tt -20cm = Température de l'air -20cm
tt -100cm = Température de l'air -100cm
ff = Vitesse du vent
fx = gusts
dd = Direction du vent
ppp = reduced air pressure
vv = visibility
sd = Ensoleillement
rr = Quantités de précipitations

stations d'obs. à proximité